Location: Taaricht
(32.5378°N, 5.4251°W)
Time: 19:48:37
(UTC+00:00)

ATLAS 2AS CENTAUR R/B - Pass Details

Date: 09 April 2020
Orbit: 933 x 1279 km, 63.7° (Epoch: 25 May)

Event Time Altitude Azimuth Distance (km) Brightness Sun altitude
Rises 21:50:46 0° 314° (NW) 4,044 6.7 -35.6°
Reaches altitude 10° 21:54:16 10° 300° (WNW) 3,017 5.8 -36.2°
Maximum altitude 21:59:21 21° 254° (WSW) 2,198 4.5 -36.9°
Enters shadow 22:00:31 20° 240° (WSW) 2,224 4.4 -37.1°
